Location: Newark
(44.5425°N, 10.7801°E)
Time: 13:39:24
(UTC+00:00)

N. Korean satellite - Pass Details

Date: 01 February 2020
Orbit: 456 x 505 km, 97.2° (Epoch: 24 February)

Event Time Altitude Azimuth Distance (km) Brightness Sun altitude
Rises 04:17:32 0° 26° (NNE) 2,567 10.6 -24.9°
Reaches altitude 10° 04:20:00 10° 44° (NE) 1,690 9.8 -24.4°
Maximum altitude 04:22:48 21° 94° (E) 1,171 9.3 -23.9°
Drops below altitude 10° 04:25:36 10° 144° (SE) 1,697 9.8 -23.4°
Sets 04:28:04 0° 161° (SSE) 2,581 10.5 -23.0°
